Tracking 22124 objects as of 24-Jan-2021
HD Live streaming from Space Station
objects crossing your sky now

KAISTSAT 4

Track KAISTSAT 4 now!
10-day predictions
KAISTSAT 4 is classified as:


NORAD ID: 27945
Int'l Code: 2003-042G
Perigee: 675.2 km
Apogee: 693.8 km
Inclination: 98.1 °
Period: 98.3 minutes
Semi major axis: 7055 km
RCS: 0.503 m2 (medium)
Launch date: September 27, 2003
Source: South Korea (SKOR)
Launch site: PLESETSK MISSILE AND SPACE COMPLEX (PKMTR)

Turkey's first earth observation satellite; part of international Disaster Monitoring Constellation (DMC).
aabbcc
Your satellite tracking list
Your tracking list is empty




NASA's NSSDC Master Catalog

Two Line Element Set (TLE):
1 27945U 03042G   21023.92077419  .00000017  00000-0  12059-4 0  9992
2 27945  98.1200 155.9504 0013170  55.0605 305.1833 14.64908924925366
Source of the keplerian elements: AFSPC